This demonstration page uses our WeatherBlox Daily Observations layout. Learn more.

Hourly Observations for January 17, 2020

Temp ( °F °C ) Dew Point ( °F °C ) Humidity (%) Winds ( mph kmh ) Pressure ( in mb ) Visibility ( mi km ) Precip ( " mm )
12:54 am 00:54 Cloudy 17 -8.3 9 -12.8 70 70 SE 8 13 30.59 1036 10 16.0934 0 0
1:54 am 01:54 Cloudy 19 -7.2 10 -12.2 68 68 SSE 8 13 30.56 1035 10 16.0934 0 0
2:54 am 02:54 Cloudy 20 -6.7 11 -11.7 68 68 SE 10 17 30.55 1035 10 16.0934 0.001 0.001
3:54 am 03:54 Cloudy with Light Snow 21 -6.1 12 -11.1 68 68 ESE 9 15 30.51 1033 9 14.48406 0.001 0.001
4:14 am 04:14 Cloudy with Light Snow 21 -6.1 13 -10.6 71 71 SE 14 22 30.53 1034 2 3.21868 0.001 0.001
4:25 am 04:25 Cloudy with Light Snow 21 -6.1 14 -10 74 74 SE 9 15 30.52 1034 1.5 2.41401 0.001 0.001
4:41 am 04:41 Cloudy with Light Snow 21 -6.1 16 -8.9 81 81 ESE 10 17 30.5 1033 1.25 2.011675 0.01 0.254
4:54 am 04:54 Cloudy with Light Snow 21 -6.1 16 -8.9 81 81 ESE 12 19 30.45 1031 1.5 2.41401 0.02 0.508
5:54 am 05:54 Cloudy with Light Snow 22 -5.6 17 -8.3 82 82 SE 14 22 30.42 1030 2 3.21868 0.05 1.27
6:03 am 06:03 Cloudy with Light Snow 22 -5.6 18 -7.8 85 85 SE 13 20 30.44 1031 2 3.21868 0.001 0.001
6:22 am 06:22 Cloudy with Light Snow 22 -5.6 18 -7.8 85 85 SE 14 22 30.42 1030 1.5 2.41401 0.01 0.254
6:31 am 06:31 Mostly Cloudy with Scattered Snow Showers 22 -5.6 18 -7.8 85 85 SE 14 22 30.41 1030 0.75 1.207005 0.02 0.508
6:42 am 06:42 Mostly Cloudy with Scattered Snow Showers 22 -5.6 19 -7.2 89 89 SE 15 24 30.41 1030 0.75 1.207005 0.03 0.762
6:54 am 06:54 Cloudy with Light Snow 22 -5.6 19 -7.2 89 89 SE 15 24 30.37 1028 1.75 2.816345 0.03 0.762
6:58 am 06:58 Cloudy with Light Snow 22 -5.6 19 -7.2 89 89 SE 15 24 30.4 1029 3 4.82802 0.001 0.001
7:08 am 07:08 Cloudy with Light Snow 23 -5 19 -7.2 85 85 SE 17 28 30.39 1029 3 4.82802 0.02 0.508
7:54 am 07:54 Cloudy with Light Snow 24 -4.4 20 -6.7 84 84 SE 16 26 30.32 1027 1.25 2.011675 0.04 1.016
8:29 am 08:29 Cloudy with Light Snow 24 -4.4 20 -6.7 84 84 SE 16 26 30.32 1027 4 6.43736 0.04 1.016
8:51 am 08:51 Cloudy with Light Snow 25 -4 19 -7 80 80 SE 15 24 30.3 1026 3 4.82802 0.06 1.524
8:54 am 08:54 Cloudy with Light Snow 24 -4.4 20 -6.7 84 84 SE 17 28 30.28 1026 3 4.82802 0.06 1.524
9:26 am 09:26 Cloudy with Light Freezing Rain 25 -3.9 22 -5.6 88 88 SE 17 28 30.29 1026 3 4.82802 0.01 0.254
9:54 am 09:54 Cloudy with Light Freezing Rain 26 -3.3 22 -5.6 84 84 SE 20 31 30.25 1024 3 4.82802 0.03 0.762
10:54 am 10:54 Cloudy with Light Freezing Rain 28 -2.2 24 -4.4 85 85 SSE 16 26 30.2 1023 3 4.82802 0.03 0.762
11:29 am 11:29 Cloudy 29 -1.7 25 -3.9 85 85 SSE 20 31 30.19 1022 10 16.0934 0.01 0.254
11:42 am 11:42 Cloudy with Mist and Fog 29 -1.7 26 -3.3 89 89 SE 18 30 30.18 1022 4 6.43736 0.01 0.254
11:54 am 11:54 Cloudy 30 -1.1 26 -3.3 85 85 SE 15 24 30.14 1021 8 12.87472 0.01 0.254
12:44 pm 12:44 Cloudy with Mist and Fog 31 -0.6 28 -2.2 89 89 SSE 20 31 30.09 1019 2.5 4.02335 0 0
12:54 pm 12:54 Cloudy with Mist and Fog 31 -0.6 28 -2.2 89 89 SE 16 26 30.07 1018 2.5 4.02335 0 0
1:32 pm 13:32 Cloudy with Mist and Fog 32 0 30 -1.1 92 92 SSE 18 30 30.04 1017 1.5 2.41401 0.001 0.001
1:54 pm 13:54 Cloudy with Mist and Fog 33 0.6 30 -1.1 89 89 SSE 18 30 30 1016 2 3.21868 0.01 0.254
2:07 pm 14:07 Cloudy with Mist and Fog 33 0.6 30 -1.1 89 89 SSE 18 30 30.01 1016 1.75 2.816345 0 0
2:17 pm 14:17 Cloudy with Mist and Fog 33 0.6 30 -1.1 89 89 SSE 16 26 29.99 1015 2 3.21868 0 0
2:54 pm 14:54 Cloudy with Mist and Fog 33 0.6 31 -0.6 92 92 SSE 18 30 29.95 1014 2.5 4.02335 0 0
3:05 pm 15:05 Cloudy with Mist and Fog 33 0.6 31 -0.6 92 92 SSE 17 28 29.96 1014 1.5 2.41401 0 0
3:54 pm 15:54 Cloudy with Light Rain 34 1.1 31 -0.6 89 89 SSE 18 30 29.91 1013 1.5 2.41401 0.01 0.254
4:54 pm 16:54 Cloudy with Light Rain 34 1.1 32 0 92 92 SSE 16 26 29.88 1012 1.75 2.816345 0.01 0.254
5:34 pm 17:34 Cloudy with Light Rain 34 1.1 32 0 92 92 SSE 12 19 29.89 1012 2.5 4.02335 0.01 0.254
5:54 pm 17:54 Cloudy with Light Wintry Mix 34 1.1 32 0 92 92 SSE 12 19 29.87 1012 2 3.21868 0.01 0.254
6:26 pm 18:26 Cloudy with Mist and Fog 34 1.1 32 0 92 92 S 13 20 29.88 1012 2 3.21868 0.01 0.254
6:54 pm 18:54 Cloudy with Mist and Fog 34 1.1 32 0 92 92 S 10 17 29.88 1012 2.5 4.02335 0.01 0.254
7:17 pm 19:17 Cloudy with Mist and Fog 33 0.6 32 0 96 96 S 9 15 29.89 1012 3 4.82802 0 0
7:54 pm 19:54 Cloudy with Mist and Fog 33 0.6 32 0 96 96 SSE 10 17 29.85 1011 3 4.82802 0.01 0.254
8:30 pm 20:30 Cloudy with Mist and Fog 33 0.6 32 0 96 96 SSE 8 13 29.86 1011 4 6.43736 0 0
8:47 pm 20:47 Cloudy with Mist and Fog 33 0.6 32 0 96 96 SSE 9 15 29.85 1011 4 6.43736 0 0
8:54 pm 20:54 Cloudy with Mist and Fog 33 0.6 32 0 96 96 SSE 9 15 29.83 1010 4 6.43736 0 0
9:10 pm 21:10 Cloudy with Mist and Fog 33 0.6 32 0 96 96 SSE 9 15 29.85 1011 6 9.65604 0 0
9:54 pm 21:54 Cloudy with Mist and Fog 33 0.6 32 0 96 96 S 6 9 29.82 1010 10 16.0934 0 0
10:12 pm 22:12 Cloudy with Mist and Fog 33 0.6 32 0 96 96 S 6 9 29.84 1010 10 16.0934 0 0
10:54 pm 22:54 Cloudy with Mist and Fog 34 1.1 32 0 92 92 WSW 3 6 29.83 1010 10 16.0934 0 0
11:54 pm 23:54 Cloudy with Mist and Fog 34 1.1 32 0 92 92 W 6 9 29.84 1010 10 16.0934 0 0

Powered by AerisWeather